Flughafen Wetterinformationen

LTBA 170620Z 03014KT 9999 SCT035 BKN200 25/16 Q1007 NOSIG

VATSIM Feed

Card image cap

ATC Buchungen

Es wurde keine Position gebucht

Card image cap

Aktive Flugsicherung

Derzeit sind keine Fluglotsen Online

Blog

Read our latest news and get to know us better.